Location: ?????????
(54.7630°N, 39.4991°E)
Time: 19:29:27
(UTC+00:00)

Cosmos 1626 Rocket - Pass Details

Date: 14 April 2026
Orbit: 596 x 624 km, 82.5° (Epoch: 19 May)

Event Time Altitude Azimuth Distance (km) Brightness Sun altitude
Rises 21:34:36 0° 350° (N) 2,860 8.2 -25.5°
Reaches altitude 10° 21:36:52 10° 355° (N) 1,951 7.1 -25.5°
Enters shadow 21:40:57 54° 65° (ENE) 734 4.0 -25.5°
